STARLINK-1020, 44725

Orbit data source: Space-Track

STARLINK-1020, 44725 is a payload satellite owned by SpaceX/Seattle (US) in LEO that was launched on Mon, 11 Nov 2019 UTC via an FALCON 9 launch vehicle from the Air Force Eastern Test Range (AFETR). Payload-class satellites include a variety of spacecraft equipped with specific instruments for various scientific and technological missions. These include communications satellites like Starlink; space stations such as the ISS; scientific satellites like the Hubble; Earth observation satellites from companies like Planet Labs, Umbra, and HawkEye 360; GPS; miniature CubeSats for education and research; and military/defense satellites.

Loading next visibility...
Identifier
44725, 2019-074N
Orbit
LEO
Country
Flag of USUS
Related business
Manufacturer
SpaceX/Seattle
Mission
Partially operational Commercial Communications
Bus & Motor
STARLINK, Unknown motor
Mass
260 kg wet, ~248 kg dry
Launch date (UTC)
2019-11-11 (6 years ago)
Launch vehicle
FALCON 9
Launch site
Air Force Eastern Test Range (AFETR)
Object type
Payload
Rocket body
Debris
Shape & HBR
Box + 1 Pan, 10.1 m
Radar Cross Section
13.562 m², Large (>1 m²)

Expand to show TLE details & history
Last TLE update: 10 hours ago

TLE from 10 hours ago
0 STARLINK-1020
1 44725U 19074N   26126.46214386  .00066706  00000-0  11581-2 0  9997
2 44725  53.1612 293.2632 0000944  37.0101 323.0973 15.50252167357374
Epoch: 2026-05-06T11:05Z
TLE epoch observation values (Epoch: 2026-05-06T11:05:29.229Z)
Latitude
-0.00006°
Longitude
-97.43092°
Altitude
416.384 km
Speed
7.663 km/s
True Right ascension
19h 33m 03s
True Declination
0° 00' 00"
Sunlit
Object was in daylight at epoch
Visualization orbit readout
Latitude
Unknown
Longitude
Unknown
Altitude
Unknown
Speed
Unknown
Apparent Right ascension
Unknown
Apparent Declination
Unknown
Sunlit
N/A
Visualization observer readout
Local Sidereal Time
05:24:58
Azimuth
Unknown
Elevation
Unknown
Doppler factor
Unknown
Orbital elements
Apogee altitude
416.889 km
Perigee altitude
415.606 km
Semi-major axis
6,794.385 km
Eccentricity
0.00009
Inclination
53.1612°
RAAN
293.2632°
Arg. of periapsis
37.0101°
True anomaly
323.0908°
Mean anomaly
323.0973°
Eccentric anomaly
323.09405°
Mean motion
3.87541 °/min
Orbital period
92.89 mins
BSTAR
0.0011581
Loading maneuver chart data...
Computing Atmospheric mass density...

Documentation

Showing up to 5 results
|